Change the Weather History Date:

Tuesday, March 11, 2014

  Actual Average (KDIK) Record (KDIK)
Temperature  
Mean Temperature 35 °F 28 °F  
Max Temperature 44 °F 39 °F 72 °F (2012)
Min Temperature 26 °F 17 °F -26 °F (1998)
Degree Days  
Heating Degree Days 30 37  
Month to date heating degree days 428  
Since 1 July heating degree days 6722  
Cooling Degree Days 0 0  
Month to date cooling degree days 0  
Year to date cooling degree days 0  
Moisture  
Dew Point 28 °F    
Average Humidity 76    
Maximum Humidity 93    
Minimum Humidity 46    
Precipitation  
Precipitation 0.00 in 0.02 in 1.02 in (1954)
Month to date precipitation 0.20  
Year to date precipitation 0.83  
Sea Level Pressure  
Sea Level Pressure 30.04 in    
Wind  
Wind Speed 10 mph (NW)    
Max Wind Speed 22 mph    
Max Gust Speed 31 mph    
Visibility 10 miles    
Events      
T = Trace of Precipitation, MM = Missing Value Source: NWS Daily Summary

Daily Weather History Graph

Daily Weather History Graph

Search for Another Location

Airport or City:

Trip Planner

Search our weather history database for the weather conditions in past years. The results will help you decide how hot, cold, wet, or windy it might be!

Date:

Astronomy

Mar. 11, 2014 Rise Set
Actual Time 7:07 AM MDT 6:47 PM MDT
Civil Twilight 6:37 AM MDT 7:17 PM MDT
Nautical Twilight 6:02 AM MDT 7:53 PM MDT
Astronomical Twilight 5:26 AM MDT 8:28 PM MDT
Moon 2:12 PM MDT (3/11) 4:16 AM MDT (3/11)
Length of Visible Light 12h 40m
Length of Day
11h 39m
Waxing Gibbous, 78% of the Moon is Illuminated
Mar 11
Waxing Gibbous
Mar 16
Full
Mar 23
Last Quarter
Mar 30
New
Apr 7
First Quarter

Hourly Weather History & Observations

Time (MDT) Temp. Windchill Dew Point Humidity Pressure Visibility Wind Dir Wind Speed Gust Speed Precip Events Conditions
12:15 AM 35.6 °F 29.9 °F 30.2 °F 81% 29.80 in 10.0 mi NNW 6.9 mph - N/A   Overcast
12:35 AM 35.6 °F 28.6 °F 30.2 °F 81% 29.81 in 10.0 mi NNW 9.2 mph - N/A   Overcast
12:55 AM 35.6 °F 28.6 °F 30.2 °F 81% 29.82 in 10.0 mi NNW 9.2 mph - N/A   Overcast
1:15 AM 35.6 °F 29.2 °F 30.2 °F 81% 29.83 in 10.0 mi NNW 8.1 mph - N/A   Overcast
1:35 AM 33.8 °F 27.7 °F 28.4 °F 81% 29.84 in 10.0 mi WNW 6.9 mph - N/A   Overcast
1:55 AM 33.8 °F 28.6 °F 30.2 °F 87% 29.85 in 10.0 mi NW 5.8 mph - N/A   Overcast
2:15 AM 33.8 °F 28.6 °F 30.2 °F 87% 29.86 in 10.0 mi WNW 5.8 mph - N/A   Overcast
2:35 AM 32.0 °F 24.8 °F 30.2 °F 93% 29.86 in 10.0 mi NW 8.1 mph - N/A   Overcast
2:55 AM 33.8 °F 27.0 °F 30.2 °F 87% 29.86 in 10.0 mi NW 8.1 mph - N/A   Overcast
3:15 AM 33.8 °F 26.4 °F 28.4 °F 81% 29.87 in 10.0 mi NW 9.2 mph - N/A   Overcast
3:35 AM 33.8 °F 26.4 °F 28.4 °F 81% 29.87 in 10.0 mi NW 9.2 mph - N/A   Scattered Clouds
3:55 AM 33.8 °F 26.4 °F 28.4 °F 81% 29.88 in 10.0 mi NW 9.2 mph - N/A   Partly Cloudy
4:15 AM 32.0 °F 24.8 °F 28.4 °F 87% 29.90 in 10.0 mi NW 8.1 mph - N/A   Clear
4:35 AM 33.8 °F 25.8 °F 28.4 °F 81% 29.90 in 10.0 mi NNW 10.4 mph - N/A   Clear
4:55 AM 32.0 °F 24.2 °F 26.6 °F 80% 29.91 in 10.0 mi NNW 9.2 mph - N/A   Clear
5:15 AM 32.0 °F 24.8 °F 26.6 °F 80% 29.92 in 10.0 mi NNW 8.1 mph - N/A   Clear
5:35 AM 32.0 °F 24.2 °F 26.6 °F 80% 29.92 in 10.0 mi NNW 9.2 mph - N/A   Clear
5:55 AM 32.0 °F 27.5 °F 26.6 °F 80% 29.93 in 10.0 mi WNW 4.6 mph - N/A   Clear
6:15 AM 30.2 °F 23.4 °F 26.6 °F 86% 29.94 in 10.0 mi WNW 6.9 mph - N/A   Clear
6:35 AM 32.0 °F 24.8 °F 26.6 °F 80% 29.96 in 10.0 mi NW 8.1 mph - N/A   Clear
6:55 AM 32.0 °F 23.0 °F 26.6 °F 80% 29.97 in 10.0 mi NNW 11.5 mph - N/A   Scattered Clouds
7:15 AM 32.0 °F 23.6 °F 26.6 °F 80% 29.98 in 10.0 mi NNW 10.4 mph - N/A   Partly Cloudy
7:35 AM 30.2 °F 24.3 °F 26.6 °F 86% 29.98 in 10.0 mi NW 5.8 mph - N/A   Clear
7:55 AM 30.2 °F 21.3 °F 26.6 °F 86% 30.00 in 10.0 mi NW 10.4 mph - N/A   Clear
8:15 AM 32.0 °F 22.1 °F 26.6 °F 80% 30.01 in 10.0 mi NNW 13.8 mph - N/A   Clear
8:35 AM 32.0 °F 21.6 °F 26.6 °F 80% 30.01 in 10.0 mi NW 15.0 mph - N/A   Clear
8:55 AM 32.0 °F 22.5 °F 26.6 °F 80% 30.02 in 10.0 mi NW 12.7 mph - N/A   Partly Cloudy
9:15 AM 32.0 °F 22.5 °F 26.6 °F 80% 30.04 in 10.0 mi NNW 12.7 mph 20.7 mph N/A   Clear
9:35 AM 33.8 °F 23.2 °F 26.6 °F 75% 30.05 in 10.0 mi NNW 17.3 mph - N/A   Clear
9:55 AM 33.8 °F 22.8 °F 28.4 °F 81% 30.06 in 10.0 mi NW 18.4 mph - N/A   Clear
10:15 AM 35.6 °F 25.2 °F 28.4 °F 75% 30.07 in 10.0 mi NW 18.4 mph - N/A   Clear
10:35 AM 35.6 °F 25.2 °F 28.4 °F 75% 30.09 in 10.0 mi NNW 18.4 mph - N/A   Clear
10:55 AM 37.4 °F 26.6 °F 28.4 °F 70% 30.10 in 10.0 mi NNW 21.9 mph - N/A   Clear
11:15 AM 39.2 °F 30.2 °F 30.2 °F 70% 30.11 in 10.0 mi NW 17.3 mph 24.2 mph N/A   Partly Cloudy
11:35 AM 39.2 °F 30.2 °F 30.2 °F 70% 30.11 in 10.0 mi NW 17.3 mph - N/A   Clear
11:55 AM 41.0 °F 33.1 °F 30.2 °F 65% 30.12 in 10.0 mi NNW 15.0 mph 21.9 mph N/A   Clear
12:15 PM 41.0 °F 32.2 °F 30.2 °F 65% 30.11 in 10.0 mi NNW 18.4 mph - N/A   Clear
12:35 PM 41.0 °F 32.8 °F 30.2 °F 65% 30.12 in 10.0 mi NNW 16.1 mph 23.0 mph N/A   Partly Cloudy
12:55 PM 41.0 °F 33.1 °F 30.2 °F 65% 30.12 in 10.0 mi NNW 15.0 mph 20.7 mph N/A   Partly Cloudy
1:15 PM 42.8 °F 35.4 °F 30.2 °F 61% 30.11 in 10.0 mi NW 15.0 mph 21.9 mph N/A   Partly Cloudy
1:35 PM 42.8 °F 35.1 °F 30.2 °F 61% 30.11 in 10.0 mi NW 16.1 mph 23.0 mph N/A   Partly Cloudy
1:55 PM 44.6 °F 36.6 °F 30.2 °F 57% 30.12 in 10.0 mi NW 19.6 mph - N/A   Partly Cloudy
2:15 PM 42.8 °F 35.8 °F 28.4 °F 57% 30.12 in 10.0 mi NNW 13.8 mph 19.6 mph N/A   Partly Cloudy
2:35 PM 44.6 °F 36.4 °F 24.8 °F 46% 30.11 in 10.0 mi North 20.7 mph 27.6 mph N/A   Partly Cloudy
2:55 PM 42.8 °F 35.1 °F 26.6 °F 53% 30.12 in 10.0 mi NNW 16.1 mph 24.2 mph N/A   Mostly Cloudy
3:15 PM 41.0 °F 33.1 °F 30.2 °F 65% 30.12 in 10.0 mi North 15.0 mph 23.0 mph N/A   Mostly Cloudy
3:35 PM 42.8 °F 35.4 °F 30.2 °F 61% 30.12 in 10.0 mi North 15.0 mph 21.9 mph N/A   Scattered Clouds
3:55 PM 42.8 °F 37.0 °F 30.2 °F 61% 30.12 in 10.0 mi North 10.4 mph 20.7 mph N/A   Partly Cloudy
4:15 PM 42.8 °F 36.6 °F 30.2 °F 61% 30.12 in 10.0 mi North 11.5 mph - N/A   Scattered Clouds
4:35 PM 41.0 °F 36.4 °F 28.4 °F 61% 30.12 in 10.0 mi North 6.9 mph 13.8 mph N/A   Mostly Cloudy
4:55 PM 41.0 °F 35.2 °F 30.2 °F 65% 30.12 in 10.0 mi North 9.2 mph - N/A   Overcast
5:15 PM 41.0 °F 35.2 °F 30.2 °F 65% 30.13 in 10.0 mi NNW 9.2 mph - N/A   Overcast
5:35 PM 41.0 °F 38.0 °F 30.2 °F 65% 30.13 in 10.0 mi North 4.6 mph - N/A   Mostly Cloudy
5:55 PM 39.2 °F 29.3 °F 28.4 °F 65% 30.14 in 10.0 mi WNW 20.7 mph 31.1 mph N/A   Overcast
6:15 PM 37.4 °F 30.8 °F 28.4 °F 70% 30.14 in 10.0 mi NW 9.2 mph 15.0 mph N/A   Overcast
6:35 PM 35.6 °F 31.7 °F 28.4 °F 75% 30.14 in 10.0 mi WNW 4.6 mph - N/A   Overcast
6:55 PM 33.8 °F 27.7 °F 26.6 °F 75% 30.14 in 10.0 mi WNW 6.9 mph - N/A   Overcast
7:15 PM 32.0 °F 26.4 °F 26.6 °F 80% 30.15 in 10.0 mi NW 5.8 mph - N/A   Scattered Clouds
7:35 PM 32.0 °F - 26.6 °F 80% 30.14 in 10.0 mi Calm Calm - N/A   Scattered Clouds
7:55 PM 30.2 °F - 26.6 °F 86% 30.15 in 10.0 mi Calm Calm - N/A   Scattered Clouds
8:15 PM 28.4 °F 24.6 °F 24.8 °F 86% 30.14 in 10.0 mi SSW 3.5 mph - N/A   Mostly Cloudy
8:35 PM 28.4 °F 24.6 °F 26.6 °F 93% 30.14 in 10.0 mi WSW 3.5 mph - N/A   Partly Cloudy
8:55 PM 28.4 °F 22.2 °F 24.8 °F 86% 30.13 in 10.0 mi West 5.8 mph - N/A   Scattered Clouds
9:15 PM 26.6 °F 19.1 °F 24.8 °F 93% 30.13 in 10.0 mi West 6.9 mph - N/A   Partly Cloudy
9:35 PM 28.4 °F 23.3 °F 24.8 °F 86% 30.14 in 10.0 mi West 4.6 mph - N/A   Clear
9:55 PM 28.4 °F 21.2 °F 24.8 °F 86% 30.13 in 10.0 mi WSW 6.9 mph - N/A   Scattered Clouds
10:15 PM 30.2 °F 24.3 °F 26.6 °F 86% 30.13 in 10.0 mi West 5.8 mph - N/A   Overcast
10:35 PM 30.2 °F 24.3 °F 24.8 °F 80% 30.12 in 10.0 mi WNW 5.8 mph - N/A   Overcast
10:55 PM 30.2 °F 24.3 °F 24.8 °F 80% 30.12 in 10.0 mi West 5.8 mph - N/A   Overcast
11:15 PM 30.2 °F 22.6 °F 24.8 °F 80% 30.12 in 10.0 mi WNW 8.1 mph - N/A   Overcast
11:35 PM 28.4 °F 19.7 °F 23.0 °F 80% 30.12 in 10.0 mi WNW 9.2 mph - N/A   Scattered Clouds
11:55 PM 30.2 °F 21.9 °F 24.8 °F 80% 30.12 in 10.0 mi NW 9.2 mph - N/A   Clear